Weather History for Aberdeen, SD

Change the Weather History Date:

Tuesday, April 16, 2013

  Actual Average Record
Temperature  
Mean Temperature 30 °F 45 °F  
Max Temperature 38 °F 58 °F 92 °F (1913)
Min Temperature 21 °F 32 °F 14 °F (1953)
Degree Days  
Heating Degree Days 35 20  
Month to date heating degree days 531 384  
Since 1 July heating degree days 8340 7935  
Cooling Degree Days 0 0  
Month to date cooling degree days 0 0  
Year to date cooling degree days 0 0  
Moisture  
Dew Point 22 °F    
Average Humidity 72    
Maximum Humidity 84    
Minimum Humidity 59    
Precipitation  
Precipitation 0.00 in 0.06 in 0.99 in (2003)
Month to date precipitation 1.82 0.80  
Year to date precipitation 3.90 2.98  
Snow  
Snow 0.00 in - - ()
Month to date snowfall 18.5  
Since 1 July snowfall 59.5  
Snow Depth 7.00 in    
Sea Level Pressure  
Sea Level Pressure 30.27 in    
Wind  
Wind Speed 5 mph (NNW)    
Max Wind Speed 10 mph    
Max Gust Speed 13 mph    
Visibility 10 miles    
Events      
T = Trace of Precipitation, MM = Missing Value Source: NWS Daily Summary

Daily Weather History Graph

Daily Weather History Graph

Search for Another Location

Airport:

Trip Planner

Search our weather history database for the weather conditions in past years. The results will help you decide how hot, cold, wet, or windy it might be!

Date:

Astronomy

Apr. 16, 2013 Rise Set
Actual Time 6:46 AM CDT 8:21 PM CDT
Civil Twilight 6:15 AM CDT 8:52 PM CDT
Nautical Twilight 5:37 AM CDT 9:30 PM CDT
Astronomical Twilight 4:56 AM CDT 10:11 PM CDT
Moon 10:58 AM CDT (4/16) 1:27 AM CDT (4/16)
Length of Visible Light 14h 37m
Length of Day
13h 35m
Waxing Crescent, 33% of the Moon is Illuminated
Apr 16
Waxing Crescent
Apr 18
First Quarter
Apr 25
Full
May 2
Last Quarter
May 9
New

Hourly Weather History & Observations

Time (CDT) Temp. Windchill Dew Point Humidity Pressure Visibility Wind Dir Wind Speed Gust Speed Precip Events Conditions
12:53 AM 28.9 °F 19.8 °F 23.0 °F 78% 30.13 in 10.0 mi WNW 10.4 mph - N/A   Clear
1:53 AM 28.0 °F 20.0 °F 21.9 °F 78% 30.12 in 10.0 mi WNW 8.1 mph - N/A   Partly Cloudy
2:53 AM 26.1 °F 17.6 °F 19.9 °F 78% 30.13 in 10.0 mi NW 8.1 mph - N/A   Clear
3:53 AM 24.1 °F - 19.0 °F 81% 30.14 in 10.0 mi Calm Calm - N/A   Clear
4:53 AM 21.0 °F 13.4 °F 17.1 °F 85% 30.19 in 10.0 mi WSW 5.8 mph - N/A   Scattered Clouds
5:00 AM 21.2 °F 13.6 °F 17.6 °F 86% 30.14 in 10.0 mi WSW 5.8 mph - N/A   Mostly Cloudy
5:53 AM 24.1 °F 17.0 °F 19.9 °F 84% 30.19 in 10.0 mi WNW 5.8 mph - N/A   Mostly Cloudy
6:03 AM 24.8 °F 20.5 °F 19.4 °F 80% 30.15 in 10.0 mi WNW 3.5 mph - N/A   Scattered Clouds
6:53 AM 21.2 °F - 17.6 °F 86% 30.17 in 10.0 mi Calm Calm - N/A   Clear
7:53 AM 21.0 °F 16.2 °F 17.1 °F 85% 30.25 in 10.0 mi NW 3.5 mph - N/A   Scattered Clouds
8:53 AM 26.1 °F - 21.9 °F 84% 30.27 in 10.0 mi Calm Calm - N/A   Overcast
9:53 AM 28.0 °F 20.8 °F 21.9 °F 78% 30.28 in 10.0 mi North 6.9 mph - N/A   Overcast
10:53 AM 30.0 °F 23.2 °F 23.0 °F 75% 30.30 in 10.0 mi North 6.9 mph - N/A   Overcast
11:53 AM 32.0 °F 23.6 °F 23.0 °F 69% 30.30 in 10.0 mi NNW 10.4 mph - N/A   Overcast
12:53 PM 34.0 °F - 23.0 °F 64% 30.32 in 10.0 mi Calm Calm - N/A   Mostly Cloudy
1:53 PM 35.1 °F 31.0 °F 23.0 °F 61% 30.32 in 10.0 mi NNW 4.6 mph - N/A   Partly Cloudy
2:53 PM 35.1 °F 30.1 °F 24.1 °F 64% 30.33 in 10.0 mi North 5.8 mph - N/A   Partly Cloudy
3:53 PM 35.1 °F 29.3 °F 25.0 °F 67% 30.33 in 10.0 mi North 6.9 mph - N/A   Clear
4:53 PM 34.0 °F 28.8 °F 24.1 °F 67% 30.34 in 10.0 mi NNE 5.8 mph - N/A   Scattered Clouds
5:53 PM 33.1 °F 26.9 °F 25.0 °F 72% 30.34 in 10.0 mi NNE 6.9 mph - N/A   Overcast
6:53 PM 33.1 °F 26.1 °F 25.0 °F 72% 30.35 in 10.0 mi NNE 8.1 mph - N/A   Overcast
7:53 PM 32.0 °F 24.8 °F 26.1 °F 79% 30.35 in 10.0 mi NNE 8.1 mph - N/A   Overcast
8:53 PM 32.0 °F 25.6 °F 26.1 °F 79% 30.35 in 10.0 mi NNE 6.9 mph - N/A   Overcast
9:53 PM 32.0 °F 28.7 °F 26.1 °F 79% 30.38 in 10.0 mi NE 3.5 mph - N/A   Overcast
10:53 PM 32.0 °F 28.7 °F 27.0 °F 82% 30.39 in 10.0 mi North 3.5 mph - N/A   Overcast
11:53 PM 32.0 °F 27.5 °F 27.0 °F 82% 30.40 in 10.0 mi North 4.6 mph - N/A   Overcast